DW0152 Weather Reports


Display with metric or nautical units.
time (UTC)temp
F
wind
direction
speed
MPH
gust
MPH
rain 1hr
in
rain 24hr
in
rain mn
in
humidity
%
barometer
mb
20191207185532 48 172 1.0 6.0 0.00 0.03 0.00 85 1015.2
20191207185035 48 176 1.0 5.0 0.00 0.03 0.00 85 1015.2
20191207184552 48 161 1.0 5.0 0.00 0.03 0.00 85 1015.2
20191207184032 48 152 1.0 5.0 0.00 0.03 0.00 85 1015.2
20191207183534 48 166 1.0 7.0 0.00 0.03 0.00 85 1015.3
20191207183111 48 157 1.0 7.0 0.00 0.03 0.00 85 1015.2
20191207182534 48 155 1.0 5.0 0.00 0.03 0.00 84 1015.1
20191207182033 48 159 1.0 6.0 0.00 0.03 0.00 84 1015.2
20191207181552 48 0 1.0 6.0 0.00 0.03 0.00 83 1015.1
20191207181032 48 0 1.0 5.0 0.00 0.03 0.00 83 1015.3
20191207180532 48 142 1.0 5.0 0.00 0.03 0.00 83 1015.2
20191207180058 48 180 1.0 6.0 0.00 0.03 0.00 83 1015.3
20191207175541 48 172 2.0 7.0 0.00 0.03 0.00 83 1015.3
20191207175030 48 180 2.0 7.0 0.00 0.03 0.00 83 1015.1
20191207174549 48 161 1.0 7.0 0.00 0.03 0.00 83 1015.1
20191207174032 48 162 1.0 7.0 0.00 0.03 0.00 83 1015.2
20191207173534 48 165 1.0 7.0 0.00 0.03 0.00 84 1015.1
20191207173114 48 178 1.0 7.0 0.00 0.03 0.00 84 1015.2
20191207172531 48 189 2.0 7.0 0.00 0.03 0.00 85 1015.2
20191207172032 48 173 1.0 6.0 0.00 0.03 0.00 85 1015.3
20191207171638 48 0 1.0 5.0 0.00 0.03 0.00 85 1015.2
20191207171039 48 168 1.0 5.0 0.00 0.03 0.00 85 1015.2
20191207170532 48 185 1.0 4.0 0.00 0.03 0.00 85 1015.3
20191207170112 48 170 1.0 5.0 0.00 0.03 0.00 85 1015.2
20191207165535 48 0 1.0 5.0 0.00 0.03 0.00 85 1015.2
20191207165039 48 0 1.0 5.0 0.00 0.03 0.00 85 1015.2
20191207164600 48 174 1.0 5.0 0.00 0.03 0.00 85 1015.2
20191207164040 48 163 1.0 5.0 0.00 0.03 0.00 84 1015.3
20191207163548 48 196 1.0 5.0 0.00 0.03 0.00 84 1015.2
20191207163055 48 186 2.0 8.0 0.00 0.03 0.00 84 1015.2
20191207162532 48 180 1.0 8.0 0.00 0.03 0.00 84 1015.0
20191207162033 48 161 1.0 5.0 0.00 0.03 0.00 83 1015.1
20191207161627 48 169 1.0 6.0 0.00 0.03 0.00 83 1015.1
20191207161040 48 0 1.0 6.0 0.00 0.03 0.00 83 1015.3
20191207160535 48 171 1.0 6.0 0.00 0.03 0.00 83 1015.2
20191207160051 49 165 1.0 6.0 0.00 0.03 0.00 83 1015.2
20191207155535 49 0 1.0 6.0 0.00 0.03 0.00 83 1015.2
20191207155035 49 170 2.0 6.0 0.00 0.03 0.00 82 1015.2
20191207154623 49 180 1.0 5.0 0.00 0.03 0.00 82 1015.3
20191207154034 49 188 1.0 6.0 0.00 0.03 0.00 82 1015.1
20191207153545 49 184 2.0 6.0 0.00 0.03 0.00 81 1015.1
20191207153048 49 164 1.0 7.0 0.00 0.03 0.00 81 1014.9
20191207152536 49 165 2.0 9.0 0.00 0.03 0.00 80 1015.0
20191207152033 49 176 2.0 9.0 0.00 0.03 0.00 80 1015.0
20191207151602 49 175 2.0 9.0 0.00 0.03 0.00 79 1015.0
20191207151042 49 0 1.0 7.0 0.00 0.03 0.00 79 1014.9
20191207150535 49 178 2.0 7.0 0.00 0.03 0.00 78 1014.8
20191207150125 49 196 2.0 7.0 0.00 0.03 0.00 78 1014.8
20191207145538 49 156 2.0 7.0 0.00 0.05 0.00 77 1014.8
20191207145033 49 174 2.0 6.0 0.00 0.05 0.00 77 1014.9
20191207144648 49 0 1.0 7.0 0.00 0.05 0.00 78 1014.8
20191207144036 49 182 1.0 7.0 0.00 0.05 0.00 78 1014.7
20191207143534 49 178 2.0 9.0 0.00 0.05 0.00 78 1014.7
20191207143051 49 184 2.0 9.0 0.00 0.05 0.00 78 1014.7
20191207142537 49 175 2.0 7.0 0.00 0.05 0.00 79 1014.7
20191207142044 49 0 2.0 8.0 0.00 0.05 0.00 79 1014.6
20191207141701 49 175 2.0 8.0 0.00 0.05 0.00 79 1014.5
20191207141035 49 0 2.0 7.0 0.00 0.05 0.00 80 1014.5
20191207140534 49 189 2.0 10.0 0.00 0.05 0.00 80 1014.6
20191207140145 49 157 3.0 10.0 0.00 0.05 0.00 80 1014.5
20191207135535 49 177 2.0 8.0 0.00 0.07 0.00 80 1014.6
20191207135051 49 0 2.0 8.0 0.00 0.07 0.00 80 1014.6
20191207134612 49 186 3.0 9.0 0.00 0.07 0.00 80 1014.5
20191207134038 49 159 2.0 9.0 0.00 0.07 0.00 81 1014.6
20191207133540 49 192 1.0 6.0 0.00 0.07 0.00 81 1014.8
20191207133148 49 170 2.0 7.0 0.00 0.07 0.00 81 1014.7
20191207132540 49 133 1.0 7.0 0.00 0.07 0.00 81 1014.7
20191207132047 49 171 2.0 7.0 0.00 0.07 0.00 81 1014.9
20191207131610 49 193 2.0 8.0 0.00 0.07 0.00 81 1014.7
20191207131043 49 176 2.0 8.0 0.00 0.07 0.00 81 1014.7
20191207130549 49 187 2.0 9.0 0.00 0.07 0.00 81 1014.7
20191207130146 49 170 2.0 9.0 0.00 0.07 0.00 81 1014.7
20191207125532 49 185 3.0 8.0 0.00 0.10 0.00 81 1014.7
20191207125052 49 179 2.0 7.0 0.00 0.10 0.00 82 1014.6
20191207124630 49 163 1.0 9.0 0.00 0.10 0.00 82 1014.6
20191207124033 49 172 2.0 9.0 0.00 0.10 0.00 82 1014.6
20191207123551 49 178 2.0 8.0 0.00 0.10 0.00 81 1014.6
20191207123044 49 163 1.0 9.0 0.00 0.10 0.00 82 1014.7
20191207122540 49 172 3.0 9.0 0.00 0.10 0.00 81 1014.6
20191207122036 49 160 1.0 7.0 0.00 0.10 0.00 82 1014.5
20191207121559 49 178 2.0 7.0 0.00 0.10 0.00 82 1014.5
20191207121034 49 178 2.0 7.0 0.00 0.10 0.00 82 1014.6
20191207120535 49 186 2.0 8.0 0.00 0.10 0.00 83 1014.7
20191207120120 49 187 2.0 9.0 0.00 0.10 0.00 83 1014.5
20191207115546 49 178 2.0 9.0 0.00 0.11 0.00 83 1014.6
20191207115042 49 175 1.0 7.0 0.00 0.11 0.00 83 1014.5
20191207114631 49 183 2.0 7.0 0.00 0.11 0.00 83 1014.6
20191207114037 49 159 2.0 8.0 0.00 0.11 0.00 83 1014.7
20191207113535 49 181 2.0 9.0 0.00 0.11 0.00 83 1014.5
20191207113139 49 165 2.0 9.0 0.00 0.11 0.00 83 1014.4
20191207112535 49 163 2.0 9.0 0.00 0.11 0.00 82 1014.4
20191207112035 49 186 3.0 9.0 0.00 0.11 0.00 82 1014.3
20191207111627 49 174 2.0 9.0 0.00 0.11 0.00 81 1014.4
20191207111037 49 0 2.0 9.0 0.00 0.11 0.00 81 1014.4
20191207110535 49 182 2.0 8.0 0.00 0.11 0.00 82 1014.5
20191207110123 48 186 3.0 8.0 0.00 0.11 0.00 82 1014.4
20191207105547 48 175 2.0 8.0 0.00 0.13 0.00 83 1014.5
20191207105039 48 182 2.0 8.0 0.00 0.13 0.00 83 1014.4
20191207104608 48 168 2.0 8.0 0.00 0.13 0.00 83 1014.7
20191207104034 48 173 2.0 9.0 0.00 0.13 0.00 83 1014.7
20191207103538 48 0 1.0 9.0 0.00 0.13 0.00 83 1014.9
20191207103107 48 0 2.0 6.0 0.00 0.13 0.00 83 1014.9
20191207102542 48 0 1.0 6.0 0.00 0.13 0.00 83 1014.9
20191207102037 48 183 2.0 6.0 0.00 0.13 0.00 84 1014.8
20191207101549 48 171 2.0 6.0 0.00 0.13 0.00 84 1014.8
20191207101035 48 178 1.0 6.0 0.00 0.13 0.00 84 1014.6
20191207100538 48 171 2.0 5.0 0.00 0.13 0.00 84 1014.7
20191207100054 48 172 1.0 6.0 0.00 0.13 0.00 85 1014.7
20191207095533 48 179 1.0 6.0 0.00 0.14 0.00 85 1014.6
20191207095040 48 167 2.0 6.0 0.00 0.14 0.00 84 1014.5
20191207094622 48 174 2.0 8.0 0.00 0.14 0.00 85 1014.6
20191207094038 48 190 2.0 8.0 0.00 0.14 0.00 85 1014.4
20191207093534 48 180 2.0 7.0 0.00 0.14 0.00 85 1014.5
20191207093102 48 185 2.0 6.0 0.00 0.14 0.00 85 1014.4
20191207092539 48 122 2.0 6.0 0.00 0.14 0.00 85 1014.3
20191207092037 48 172 2.0 7.0 0.00 0.14 0.00 85 1014.3
20191207091629 48 177 3.0 7.0 0.00 0.14 0.00 85 1014.1
20191207091037 48 191 2.0 8.0 0.00 0.14 0.00 85 1014.1
20191207090534 48 0 2.0 8.0 0.00 0.14 0.00 86 1014.2
20191207090131 48 176 2.0 7.0 0.00 0.14 0.00 86 1014.1
20191207085542 48 151 2.0 7.0 0.00 0.16 0.00 86 1014.1
20191207085033 48 180 2.0 8.0 0.00 0.16 0.00 86 1014.1
20191207084607 48 178 3.0 8.0 0.00 0.16 0.00 86 1014.0
20191207084042 48 164 2.0 8.0 0.00 0.16 0.00 86 1014.0
20191207083534 48 0 2.0 8.0 0.00 0.16 0.00 86 1013.9
20191207083246 48 193 2.0 9.0 0.00 0.16 0.00 86 1013.9
20191207082533 48 192 2.0 10.0 0.00 0.16 0.00 86 1013.9
20191207082035 48 166 2.0 10.0 0.00 0.16 0.00 87 1013.9
20191207081559 47 173 2.0 8.0 0.00 0.16 0.00 87 1013.7
20191207081035 47 165 2.0 6.0 0.00 0.16 0.00 87 1013.7
20191207080535 47 183 2.0 7.0 0.00 0.16 0.00 87 1013.6
20191207080055 47 175 2.0 7.0 0.00 0.16 0.00 87 1013.5
20191207075534 47 187 2.0 7.0 0.00 0.18 0.00 87 1013.5
20191207075034 47 165 2.0 9.0 0.00 0.18 0.00 87 1013.6
20191207074629 47 173 2.0 9.0 0.00 0.18 0.00 87 1013.5
20191207074039 47 177 2.0 7.0 0.00 0.18 0.00 87 1013.5
20191207073535 47 175 2.0 7.0 0.00 0.18 0.00 87 1013.5
20191207073129 47 171 2.0 7.0 0.00 0.18 0.00 87 1013.4
20191207072535 47 170 2.0 7.0 0.00 0.18 0.00 87 1013.4
20191207072034 47 166 1.0 7.0 0.00 0.18 0.00 87 1013.3
20191207071611 47 173 2.0 7.0 0.00 0.18 0.00 87 1013.2
20191207071039 47 175 2.0 6.0 0.00 0.18 0.00 87 1013.0
20191207070544 48 170 2.0 8.0 0.00 0.18 0.00 88 1013.1
20191207070041 47 173 2.0 8.0 0.00 0.18 0.00 88 1012.9
20191207065534 47 175 2.0 7.0 0.00 0.22 0.00 88 1012.9
20191207065036 47 193 1.0 5.0 0.00 0.22 0.00 88 1012.9
20191207064618 47 0 1.0 6.0 0.00 0.22 0.00 88 1012.9
20191207064043 47 157 2.0 6.0 0.00 0.22 0.00 88 1012.8
20191207063540 47 183 2.0 6.0 0.00 0.22 0.00 88 1012.8
20191207063053 47 180 1.0 7.0 0.00 0.22 0.00 88 1012.6
20191207062546 48 173 1.0 7.0 0.00 0.22 0.00 88 1012.6
20191207062034 47 185 1.0 6.0 0.00 0.22 0.00 88 1012.7
20191207061645 47 186 2.0 5.0 0.00 0.22 0.00 88 1012.5
20191207061035 48 175 2.0 8.0 0.00 0.22 0.00 88 1012.6
20191207060536 48 185 2.0 8.0 0.00 0.22 0.00 88 1012.5
20191207060130 48 187 2.0 10.0 0.00 0.22 0.00 88 1012.5
20191207055534 48 173 2.0 10.0 0.00 0.23 0.00 88 1012.5
20191207055031 48 171 2.0 7.0 0.00 0.23 0.00 88 1012.4
20191207054608 48 177 3.0 7.0 0.00 0.23 0.00 88 1012.3
20191207054037 48 195 2.0 7.0 0.00 0.23 0.00 88 1012.2
20191207053535 48 171 1.0 6.0 0.00 0.23 0.00 88 1012.1
20191207053112 48 176 1.0 6.0 0.00 0.23 0.00 87 1012.1
20191207052534 48 184 2.0 7.0 0.00 0.23 0.00 87 1012.0
20191207052034 48 180 2.0 7.0 0.00 0.23 0.00 87 1012.0
20191207051552 48 182 1.0 9.0 0.00 0.23 0.00 87 1011.9
20191207051042 48 194 2.0 9.0 0.00 0.23 0.00 87 1011.9
20191207050535 48 178 1.0 8.0 0.00 0.23 0.00 87 1011.9
20191207050120 48 176 2.0 8.0 0.00 0.23 0.00 87 1011.8
20191207045535 48 167 2.0 7.0 0.00 0.23 0.00 87 1011.7
20191207045034 48 171 2.0 7.0 0.00 0.23 0.00 87 1011.7
20191207044621 48 186 2.0 7.0 0.00 0.23 0.00 87 1011.6
20191207044048 48 179 2.0 7.0 0.00 0.23 0.00 87 1011.5
20191207043532 48 182 1.0 8.0 0.00 0.23 0.00 86 1011.5
20191207043119 48 182 3.0 8.0 0.00 0.23 0.00 86 1011.5
20191207042532 48 182 2.0 6.0 0.00 0.23 0.00 86 1011.4
20191207042035 48 171 2.0 8.0 0.00 0.23 0.00 86 1011.3
20191207041653 48 182 2.0 8.0 0.00 0.23 0.00 86 1011.3
20191207041036 48 169 2.0 9.0 0.00 0.23 0.00 86 1011.3
20191207040535 48 164 3.0 9.0 0.00 0.23 0.00 86 1011.2
20191207040133 48 201 2.0 7.0 0.00 0.23 0.00 86 1011.2
20191207035534 48 167 2.0 8.0 0.00 0.23 0.00 86 1011.0
20191207035037 48 171 1.0 8.0 0.00 0.23 0.00 86 1011.1
20191207034635 48 0 2.0 8.0 0.00 0.23 0.00 86 1011.1
20191207034032 48 176 2.0 6.0 0.00 0.23 0.00 86 1011.0
20191207033532 48 188 1.0 6.0 0.00 0.23 0.00 86 1010.9
20191207033121 49 0 2.0 6.0 0.00 0.23 0.00 86 1010.9
20191207032542 48 162 2.0 6.0 0.00 0.23 0.00 86 1010.8
20191207032034 49 0 2.0 9.0 0.00 0.23 0.00 86 1010.6
20191207031638 49 185 2.0 9.0 0.00 0.23 0.00 86 1010.6
20191207031036 49 213 2.0 7.0 0.00 0.23 0.00 86 1010.5
20191207030547 49 171 2.0 7.0 0.00 0.23 0.00 86 1010.5
20191207030109 49 194 2.0 8.0 0.00 0.23 0.00 86 1010.4
20191207025532 49 192 2.0 8.0 0.00 0.22 0.00 86 1010.4
20191207025034 49 183 2.0 7.0 0.00 0.22 0.00 87 1010.4
20191207024615 49 182 1.0 7.0 0.00 0.22 0.00 87 1010.3
20191207024039 49 175 2.0 8.0 0.00 0.22 0.00 87 1010.2
20191207023531 49 177 2.0 8.0 0.00 0.22 0.00 87 1010.1
20191207023111 49 183 2.0 8.0 0.00 0.22 0.00 87 1010.1
20191207022535 49 167 2.0 8.0 0.00 0.22 0.00 87 1010.1
20191207022034 49 177 1.0 6.0 0.00 0.22 0.00 87 1010.0
20191207021654 49 170 2.0 6.0 0.00 0.22 0.00 88 1009.9
20191207021039 49 171 1.0 6.0 0.00 0.22 0.00 88 1009.8
20191207020543 49 200 2.0 7.0 0.00 0.22 0.00 88 1009.8
20191207020150 49 176 2.0 9.0 0.00 0.22 0.00 88 1009.8
20191207015534 49 178 3.0 9.0 0.00 0.22 0.00 88 1009.6
20191207015034 49 169 2.0 7.0 0.00 0.22 0.00 88 1009.5
20191207014630 49 162 2.0 7.0 0.00 0.22 0.00 88 1009.5
20191207014043 49 169 2.0 7.0 0.00 0.22 0.00 88 1009.4
20191207013531 49 178 2.0 9.0 0.00 0.22 0.00 88 1009.5
20191207013125 49 179 2.0 9.0 0.00 0.22 0.00 89 1009.3
20191207012535 49 179 2.0 7.0 0.00 0.22 0.00 88 1009.2
20191207012034 49 162 2.0 10.0 0.00 0.22 0.00 88 1009.1
20191207011614 49 188 3.0 10.0 0.00 0.22 0.00 89 1009.1
20191207011034 49 194 2.0 8.0 0.00 0.22 0.00 89 1008.9
20191207010538 49 190 3.0 8.0 0.00 0.22 0.00 89 1008.8
20191207010103 49 180 2.0 8.0 0.00 0.22 0.00 89 1008.8
20191207005541 49 175 2.0 8.0 0.00 0.22 0.00 89 1008.7
20191207005035 49 0 3.0 11.0 0.00 0.22 0.00 89 1008.6
20191207004611 49 191 2.0 11.0 0.00 0.22 0.00 90 1008.5
20191207004052 49 154 3.0 7.0 0.00 0.22 0.00 90 1008.6
20191207003534 49 175 2.0 7.0 0.00 0.22 0.00 90 1008.5
20191207003108 49 194 2.0 8.0 0.00 0.22 0.00 90 1008.5
20191207002534 49 192 2.0 8.0 0.00 0.22 0.00 90 1008.3
20191207002042 49 168 2.0 8.0 0.00 0.22 0.00 90 1008.3
20191207001554 49 170 2.0 8.0 0.00 0.22 0.00 91 1008.2
20191207001038 49 169 2.0 8.0 0.00 0.22 0.00 91 1008.1
20191207000540 49 171 2.0 7.0 0.00 0.22 0.00 91 1008.0
20191207000050 49 173 2.0 9.0 0.00 0.22 0.00 91 1008.0
20191206235532 49 173 2.0 9.0 0.00 0.22 0.00 91 1008.0
20191206235036 49 166 2.0 10.0 0.00 0.22 0.00 91 1007.9
20191206234559 49 190 3.0 10.0 0.00 0.22 0.00 91 1007.9
20191206234033 49 190 2.0 10.0 0.00 0.22 0.00 91 1007.8
20191206233536 49 191 3.0 10.0 0.00 0.22 0.00 92 1007.9
20191206233102 49 155 2.0 7.0 0.00 0.22 0.00 92 1007.7
20191206232537 49 183 3.0 7.0 0.00 0.22 0.00 92 1007.7
20191206232038 49 176 3.0 9.0 0.00 0.22 0.00 92 1007.7
20191206231554 49 180 3.0 10.0 0.00 0.22 0.00 92 1007.6
20191206231038 49 186 2.0 10.0 0.00 0.22 0.00 92 1007.6
20191206230534 48 174 3.0 9.0 0.00 0.22 0.00 92 1007.4
20191206230144 48 180 2.0 9.0 0.00 0.22 0.00 92 1007.3
20191206225541 48 172 3.0 10.0 0.00 0.22 0.22 92 1007.3
20191206225047 48 190 3.0 10.0 0.00 0.22 0.22 92 1007.2
20191206224552 48 171 2.0 10.0 0.00 0.22 0.22 92 1007.2
20191206224034 48 161 3.0 10.0 0.00 0.22 0.22 92 1007.1
20191206223538 48 178 3.0 10.0 0.00 0.22 0.22 92 1007.0
20191206223139 48 169 3.0 8.0 0.00 0.22 0.22 92 1006.9
20191206222535 48 165 2.0 12.0 0.00 0.22 0.22 92 1006.9
20191206222049 48 185 4.0 12.0 0.00 0.22 0.22 92 1006.8
20191206221558 48 177 2.0 8.0 0.00 0.22 0.22 92 1006.7
20191206221055 48 144 3.0 8.0 0.00 0.22 0.22 92 1006.7
20191206220538 48 177 3.0 8.0 0.00 0.22 0.22 92 1006.5
20191206220128 48 177 3.0 8.0 0.00 0.22 0.22 92 1006.5
20191206215534 48 139 3.0 11.0 0.00 0.22 0.22 92 1006.5
20191206215034 48 180 3.0 11.0 0.00 0.22 0.22 92 1006.5
20191206214626 48 180 3.0 9.0 0.00 0.22 0.22 92 1006.4
20191206214034 48 178 4.0 10.0 0.00 0.22 0.22 92 1006.4
20191206213531 48 185 3.0 10.0 0.00 0.22 0.22 92 1006.3
20191206213057 48 189 3.0 10.0 0.00 0.22 0.22 92 1006.4
20191206212534 48 186 4.0 12.0 0.00 0.22 0.22 92 1006.2
20191206212044 48 198 4.0 12.0 0.01 0.22 0.22 92 1006.2
20191206211606 48 169 4.0 14.0 0.01 0.22 0.22 92 1006.2
20191206211034 48 177 4.0 14.0 0.00 0.22 0.22 92 1006.2
20191206210534 48 178 4.0 11.0 0.01 0.22 0.22 92 1006.1
20191206210113 48 163 4.0 11.0 0.01 0.22 0.22 92 1006.0
20191206205536 48 209 4.0 11.0 0.01 0.22 0.22 92 1005.8
20191206205033 48 184 4.0 11.0 0.01 0.22 0.22 92 1005.8
20191206204557 48 207 3.0 14.0 0.01 0.22 0.22 91 1005.9
20191206204036 48 188 5.0 14.0 0.01 0.22 0.22 91 1005.8
20191206203533 48 136 4.0 11.0 0.01 0.22 0.22 91 1005.7
20191206203109 48 144 4.0 12.0 0.01 0.22 0.22 91 1005.6
20191206202533 48 178 5.0 14.0 0.01 0.22 0.22 91 1005.5
20191206202046 48 162 4.0 14.0 0.00 0.21 0.21 91 1005.6
20191206201626 48 154 4.0 14.0 0.00 0.21 0.21 91 1005.8
20191206201035 48 171 4.0 11.0 0.00 0.21 0.21 90 1005.6
20191206200534 48 165 4.0 11.0 0.00 0.20 0.20 91 1005.7
20191206200048 47 153 4.0 15.0 0.00 0.20 0.20 91 1005.6
20191206195547 47 184 4.0 15.0 0.00 0.20 0.20 90 1005.5
20191206195035 47 146 3.0 11.0 0.00 0.20 0.20 90 1005.5
20191206194611 47 169 5.0 12.0 0.00 0.20 0.20 91 1005.4
20191206194036 47 189 4.0 12.0 0.00 0.20 0.20 91 1005.3
20191206193532 47 182 4.0 12.0 0.00 0.20 0.20 91 1005.3
20191206193052 47 187 5.0 14.0 0.00 0.20 0.20 92 1005.5
20191206192534 46 141 4.0 14.0 0.00 0.20 0.20 92 1005.5
20191206192034 46 205 4.0 11.0 0.00 0.20 0.20 92 1005.5
20191206191608 46 162 4.0 12.0 0.00 0.20 0.20 92 1005.6
20191206191034 46 142 3.0 14.0 0.00 0.20 0.20 92 1005.7
20191206190534 46 153 5.0 14.0 0.00 0.20 0.20 92 1005.9
20191206190141 46 161 4.0 13.0 0.00 0.20 0.20 92 1005.8